Point Hope, AK

7:38 AM AKDT on September 23, 2017 (GMT -0800)
Point Hope

Weather History for PAPO - March, 2014

Change the Weather History Date:

Thursday, March 13, 2014

  Actual Average Record
Temperature  
Mean Temperature -6 °F -  
Max Temperature 6 °F 5 °F 23 °F (1997)
Min Temperature -18 °F 0 °F -27 °F (1999)
Degree Days  
Heating Degree Days 71    
Moisture  
Dew Point -12 °F    
Average Humidity 71    
Maximum Humidity 85    
Minimum Humidity 49    
Precipitation  
Precipitation 0.00 in - - ()
Sea Level Pressure  
Sea Level Pressure 29.33 in    
Wind  
Wind Speed 11 mph (North)    
Max Wind Speed 22 mph    
Max Gust Speed 28 mph    
Visibility 6 miles    
Events      
Averages and records for this station are not official NWS values.
T = Trace of Precipitation, MM = Missing Value Source: NWS Daily Summary

Daily Weather History Graph

Daily Weather History Graph

Search for Another Location

Airport or City:

Trip Planner

Search our weather history database for the weather conditions in past years. The results will help you decide how hot, cold, wet, or windy it might be!

Date:

Astronomy

Mar. 13, 2014 Rise Set
Actual Time 9:35 AM AKDT 8:59 PM AKDT
Civil Twilight 8:39 AM AKDT 9:55 PM AKDT
Nautical Twilight 7:31 AM AKDT 11:04 PM AKDT
Astronomical Twilight 6:14 AM AKDT 12:23 AM AKDT
Moon 5:43 PM AKDT (3/13) 8:51 AM AKDT (3/13)
Length of Visible Light 13h 16m
Length of Day
11h 24m
Waxing Gibbous, 92% of the Moon is Illuminated
Mar 13
Waxing Gibbous
Mar 16
Full
Mar 23
Last Quarter
Mar 30
New
Apr 7
First Quarter

Hourly Weather History & Observations

Time (AKDT) Temp. Windchill Dew Point Humidity Pressure Visibility Wind Dir Wind Speed Gust Speed Precip Events Conditions
12:16 AM -14.8 °F -34.6 °F -25.6 °F 58% 29.44 in 10.0 mi East 10.4 mph - N/A   Clear
12:36 AM -14.8 °F -32.2 °F -23.8 °F 64% 29.44 in 3.0 mi ENE 8.1 mph - N/A   Clear
12:56 AM -16.6 °F -35.7 °F -27.4 °F 58% 29.44 in 10.0 mi ENE 9.2 mph - N/A   Clear
1:16 AM -18.4 °F -37.9 °F -25.6 °F 70% 29.44 in 10.0 mi ENE 9.2 mph - N/A   Clear
1:36 AM -16.6 °F -36.8 °F -25.6 °F 64% 29.44 in 10.0 mi ENE 10.4 mph - N/A   Clear
1:56 AM -16.6 °F -35.7 °F -23.8 °F 70% 29.44 in 10.0 mi ENE 9.2 mph - N/A   Clear
2:16 AM -14.8 °F -33.5 °F -20.2 °F 77% 29.44 in 3.0 mi ENE 9.2 mph - N/A   Clear
2:36 AM -18.4 °F -39.1 °F -29.2 °F 58% 29.44 in 10.0 mi East 10.4 mph - N/A   Clear
2:56 AM -16.6 °F -36.8 °F -25.6 °F 64% 29.44 in 10.0 mi East 10.4 mph - N/A   Scattered Clouds
3:16 AM -16.6 °F -34.4 °F -22.0 °F 76% 29.43 in 10.0 mi ENE 8.1 mph - N/A   Partly Cloudy
3:36 AM -14.8 °F -32.2 °F -25.6 °F 58% 29.43 in 10.0 mi ENE 8.1 mph - N/A   Clear
3:56 AM -16.6 °F -34.4 °F -23.8 °F 70% 29.44 in 10.0 mi ENE 8.1 mph - N/A   Scattered Clouds
4:16 AM -16.6 °F -34.4 °F -25.6 °F 64% 29.44 in 10.0 mi ENE 8.1 mph - N/A   Clear
4:36 AM -18.4 °F -35.1 °F -27.4 °F 63% 29.44 in 10.0 mi ENE 6.9 mph - N/A   Clear
4:56 AM -14.8 °F -29.1 °F -22.0 °F 70% 29.43 in 10.0 mi NE 5.8 mph - N/A   Scattered Clouds
5:16 AM -13.0 °F -28.6 °F -18.4 °F 77% 29.43 in 10.0 mi NE 6.9 mph - N/A   Mostly Cloudy
5:36 AM -16.6 °F -31.3 °F -29.2 °F 53% 29.42 in 10.0 mi North 5.8 mph - N/A   Scattered Clouds
5:56 AM -9.4 °F -24.3 °F -13.0 °F 84% 29.42 in 10.0 mi NNE 6.9 mph - N/A   Mostly Cloudy
6:16 AM -13.0 °F -25.1 °F -27.4 °F 49% 29.42 in 10.0 mi North 4.6 mph - N/A   Overcast
6:36 AM -13.0 °F -27.0 °F -20.2 °F 70% 29.42 in 10.0 mi North 5.8 mph - N/A   Overcast
6:56 AM -11.2 °F -24.8 °F -18.4 °F 70% 29.41 in 10.0 mi North 5.8 mph - N/A   Overcast
7:16 AM -9.4 °F -24.3 °F -16.6 °F 71% 29.40 in 10.0 mi North 6.9 mph - N/A   Overcast
7:36 AM -7.6 °F -23.4 °F -14.8 °F 71% 29.40 in 10.0 mi North 8.1 mph - N/A   Overcast
7:56 AM -7.6 °F -23.4 °F -14.8 °F 71% 29.39 in 10.0 mi North 8.1 mph - N/A   Overcast
8:16 AM -7.6 °F -23.4 °F -14.8 °F 71% 29.38 in 10.0 mi North 8.1 mph - N/A   Overcast
8:36 AM -5.8 °F -21.2 °F -14.8 °F 65% 29.38 in 10.0 mi North 8.1 mph - N/A   Overcast
8:56 AM -5.8 °F -21.2 °F -13.0 °F 71% 29.37 in 10.0 mi NNW 8.1 mph - N/A   Overcast
9:16 AM -5.8 °F -21.2 °F -13.0 °F 71% 29.37 in 10.0 mi NNW 8.1 mph - N/A   Overcast
9:36 AM -5.8 °F -22.4 °F -13.0 °F 71% 29.36 in 7.0 mi North 9.2 mph - N/A   Mostly Cloudy
9:56 AM -5.8 °F -23.4 °F -13.0 °F 71% 29.35 in 10.0 mi NNW 10.4 mph - N/A   Mostly Cloudy
10:16 AM -4.0 °F -22.1 °F -11.2 °F 71% 29.35 in 10.0 mi NNW 11.5 mph - N/A   Overcast
10:36 AM -4.0 °F -23.0 °F -11.2 °F 71% 29.34 in 8.0 mi North 12.7 mph - N/A   Overcast
10:56 AM -2.2 °F -19.9 °F -9.4 °F 71% 29.34 in 8.0 mi North 11.5 mph - N/A   Overcast
11:16 AM -2.2 °F -21.5 °F -9.4 °F 71% 29.33 in 5.0 mi NNW 13.8 mph - N/A   Overcast
11:36 AM -2.2 °F -22.2 °F -9.4 °F 71% 29.32 in 2.5 mi North 15.0 mph - N/A   Overcast
11:56 AM -2.2 °F -23.5 °F -9.4 °F 71% 29.32 in 1.2 mi North 17.3 mph - N/A   Overcast
12:16 PM -2.2 °F -24.1 °F -9.4 °F 71% 29.32 in 1.2 mi North 18.4 mph - N/A   Overcast
12:36 PM -2.2 °F -22.9 °F -9.4 °F 71% 29.31 in 2.5 mi North 16.1 mph - N/A   Overcast
12:56 PM -2.2 °F -24.7 °F -9.4 °F 71% 29.31 in 2.5 mi North 19.6 mph - N/A   Overcast
1:16 PM -2.2 °F -24.7 °F -9.4 °F 71% 29.30 in 1.2 mi North 19.6 mph - N/A   Overcast
1:56 PM -2.2 °F -25.2 °F -9.4 °F 71% 29.29 in 0.8 mi North 20.7 mph - N/A   Overcast
2:16 PM -2.2 °F -25.2 °F -9.4 °F 71% 29.29 in 0.8 mi North 20.7 mph - N/A   Overcast
2:36 PM -2.2 °F -25.2 °F -9.4 °F 71% 29.28 in 0.8 mi North 20.7 mph - N/A   Overcast
2:56 PM -2.2 °F -25.7 °F -7.6 °F 78% 29.27 in 0.8 mi North 21.9 mph 27.6 mph N/A   Overcast
3:16 PM -0.4 °F -22.8 °F -7.6 °F 72% 29.27 in 1.0 mi North 20.7 mph 25.3 mph N/A   Overcast
3:36 PM -0.4 °F -23.3 °F -9.4 °F 66% 29.26 in 1.2 mi North 21.9 mph 25.3 mph N/A   Overcast
3:56 PM -0.4 °F -22.3 °F -7.6 °F 72% 29.26 in 1.0 mi North 19.6 mph - N/A   Overcast
4:16 PM -0.4 °F -21.2 °F -7.6 °F 72% 29.26 in 1.2 mi North 17.3 mph - N/A   Overcast
4:36 PM -0.4 °F -21.7 °F -7.6 °F 72% 29.25 in 2.0 mi North 18.4 mph - N/A   Overcast
4:56 PM 1.4 °F -19.4 °F -5.8 °F 72% 29.25 in 3.0 mi North 18.4 mph 23.0 mph N/A   Mostly Cloudy
5:16 PM 1.4 °F -18.8 °F -5.8 °F 72% 29.25 in 1.5 mi North 17.3 mph - N/A   Overcast
5:36 PM 1.4 °F -18.2 °F -5.8 °F 72% 29.25 in 0.8 mi North 16.1 mph - N/A   Overcast
5:56 PM 1.4 °F -16.9 °F -5.8 °F 72% 29.24 in 0.8 mi North 13.8 mph - N/A   Overcast
6:16 PM 1.4 °F -16.9 °F -5.8 °F 72% 29.24 in 1.2 mi North 13.8 mph - N/A   Overcast
6:36 PM 1.4 °F -17.6 °F -5.8 °F 72% 29.24 in 1.5 mi North 15.0 mph - N/A   Overcast
6:56 PM 1.4 °F -14.5 °F -4.0 °F 78% 29.24 in 1.8 mi North 10.4 mph - N/A   Overcast
7:16 PM 3.2 °F -14.6 °F -4.0 °F 72% 29.23 in 2.5 mi North 13.8 mph - N/A   Overcast
7:36 PM 3.2 °F -13.1 °F -2.2 °F 78% 29.23 in 2.0 mi NNW 11.5 mph - N/A   Overcast
7:56 PM 3.2 °F -13.9 °F -2.2 °F 78% 29.24 in 2.0 mi NNW 12.7 mph - N/A   Overcast
8:16 PM 3.2 °F -12.2 °F -2.2 °F 78% 29.23 in 1.5 mi NNW 10.4 mph - N/A   Overcast
8:36 PM 3.2 °F -13.1 °F -2.2 °F 78% 29.24 in 1.5 mi NNW 11.5 mph - N/A   Overcast
8:56 PM 3.2 °F -12.2 °F -2.2 °F 78% 29.24 in 2.0 mi NNW 10.4 mph - N/A   Overcast
9:16 PM 3.2 °F -13.9 °F -2.2 °F 78% 29.24 in 1.8 mi North 12.7 mph - N/A   Overcast
9:36 PM 3.2 °F -13.1 °F -2.2 °F 78% 29.24 in 4.0 mi NNW 11.5 mph - N/A   Overcast
9:56 PM 3.2 °F -12.2 °F -2.2 °F 78% 29.24 in 3.0 mi NNW 10.4 mph - N/A   Overcast
10:16 PM 3.2 °F -13.9 °F -0.4 °F 85% 29.24 in 10.0 mi NNW 12.7 mph - N/A   Overcast
10:36 PM 5.0 °F -9.1 °F -0.4 °F 78% 29.25 in 10.0 mi NNW 9.2 mph - N/A   Overcast
10:56 PM 5.0 °F -10.0 °F -0.4 °F 78% 29.25 in 10.0 mi NNW 10.4 mph - N/A   Overcast
11:16 PM 6.8 °F -7.8 °F 1.4 °F 79% 29.25 in 10.0 mi North 10.4 mph - N/A   Overcast
11:36 PM 6.8 °F -9.3 °F 1.4 °F 79% 29.25 in 10.0 mi NNW 12.7 mph - N/A   Overcast
11:56 PM 6.8 °F -7.8 °F 1.4 °F 79% 29.25 in 10.0 mi North 10.4 mph - N/A   Overcast